Satellite-Ground Cal/Val Site Overpasses Predictions

Prediction of Satellite NPP Overpassing Cal/Val Site: Antarctic Dome C

Ground Cal/Val Site Location: Latitude: -75.10, Longitude: 123.35; Satellite-Ground Site NADIR distance within 100 km.

Table of predicted overpasses for the next 14.0 days since TLE Epoch: 9/25/2020
Interval Starting Time Ending Time Minimum Distance Time Minimum Distance (km)
1 09/26/2020 07:25:24 09/26/2020 07:25:52 09/26/2020 07:25:38 34.94
2 09/28/2020 15:07:49 09/28/2020 15:07:59 09/28/2020 15:07:54 93.17
3 09/29/2020 14:48:49 09/29/2020 14:49:18 09/29/2020 14:49:03 18.16
4 10/01/2020 07:31:38 10/01/2020 07:32:07 10/01/2020 07:31:52 2.46
5 10/04/2020 14:55:04 10/04/2020 14:55:33 10/04/2020 14:55:19 18.79
6 10/05/2020 14:36:22 10/05/2020 14:36:35 10/05/2020 14:36:29 88.44
7 10/06/2020 07:37:54 10/06/2020 07:38:21 10/06/2020 07:38:07 38.04
8 10/07/2020 07:19:08 10/07/2020 07:19:28 10/07/2020 07:19:18 72.03
